Location: Ostrava
(49.8330°N, 18.2830°E)
Time: 01:13:25
(UTC+02:00)

Envisat - Pass Details

Date: 26 January 2022
Orbit: 764 x 765 km, 98.2° (Epoch: 22 May)

Event Time Altitude Azimuth Distance (km) Brightness Sun altitude
Rises 05:15:25 0° 11° (N) 3,243 6.3 -21.2°
Reaches altitude 10° 05:17:45 10° 8° (N) 2,312 5.5 -20.8°
Maximum altitude 05:22:45 60° 290° (WNW) 877 2.9 -20.0°
Drops below altitude 10° 05:27:44 10° 211° (SSW) 2,297 5.2 -19.2°
Sets 05:30:03 0° 208° (SSW) 3,219 6.0 -18.9°
